Simultaneous Nadir Overpasses (SNOs) Predictions

Prediction of SNOs between GOES-15 and METOP-B Satellite Orbit:

Table of predicted SNOs for the next 14.0 days since TLE Epoch: 8/17/2024
Index Date Time (GOES-15) GOES-15 Lat,Lon METOP-B Lat,Lon Distance(km) Time Diff (sec)
1 08/18/2024 05:18:11 -0.10, 61.66 0.25, 60.13 174.90 80
2 08/19/2024 05:00:12 -0.08, 61.64 -0.86, 65.11 395.07 80
3 08/20/2024 17:16:33 0.12, 61.73 -0.17, 60.50 141.49 80
4 08/21/2024 16:58:35 0.10, 61.72 0.95, 65.48 428.57 80
5 08/23/2024 05:14:48 -0.14, 61.59 0.03, 60.89 80.14 80
6 08/24/2024 04:56:49 -0.11, 61.58 -1.05, 65.88 489.75 80
7 08/25/2024 17:13:10 0.15, 61.68 0.05, 61.27 47.19 80
8 08/28/2024 05:14:04 -0.16, 61.55 -0.19, 61.66 12.86 80
9 08/30/2024 17:12:25 0.18, 61.65 0.27, 62.04 44.85 80
